DateTimeUTC,F1_A11,F1_S11,BsB_S11,BsG_S11,BsR_S11,BbsB_S11,BbsG_S11,BbsR_S11,BaB_A11,BaG_A11,BaR_A11,T_S11,U_S11,P_S11,T1_A11
2020-06-21T00:00:00Z,00000380,20000600,,,,,,,,,,25.0,03.0,0678.0,31.0
2020-06-21T00:01:00Z,00000380,20000600,,,,,,,,,,25.0,03.0,0678.0,31.0
2020-06-21T00:02:00Z,00000380,20000600,,,,,,,,,,25.0,03.0,0678.0,31.0
2020-06-21T00:03:00Z,00000380,60000600,,,,,,,,,,25.0,03.0,0678.0,31.0
2020-06-21T00:04:00Z,00000380,40000600,0001.15,0000.99,0000.34,0000.01,0000.07,0000.19,-000.07,0000.05,0000.04,24.8,03.0,0678.8,31.0
2020-06-21T00:05:00Z,00000380,00000600,0000.56,0001.17,0000.61,0000.53,-000.24,0000.18,0000.12,-000.06,0000.06,24.8,03.1,0678.9,31.0
2020-06-21T00:06:00Z,00000380,00000600,0001.69,0001.18,0000.94,0000.05,-000.01,0000.17,-000.02,0000.04,-000.04,24.8,03.1,0678.9,31.0
2020-06-21T00:07:00Z,00000380,00000600,0001.94,0001.27,0000.70,0000.24,0000.09,0000.05,-000.07,0000.09,0000.05,24.7,03.0,0678.9,31.0
2020-06-21T00:08:00Z,00000380,00000600,0002.84,0000.75,0000.55,0000.83,0000.08,0000.18,0000.03,-000.07,-000.09,24.8,03.0,0678.9,31.0
2020-06-21T00:09:00Z,00000380,00000600,0000.49,0000.44,0000.82,0000.40,0000.30,0000.10,-000.04,0000.09,0000.20,24.7,03.0,0678.9,31.0
2020-06-21T00:10:00Z,00000380,00000600,0002.21,0000.97,0001.17,0000.43,0000.31,0000.36,0000.15,0000.09,-000.17,24.7,03.1,0678.9,31.0
2020-06-21T00:11:00Z,00000380,00000600,0000.01,0000.83,0000.65,-000.13,0000.27,0000.34,0000.09,-000.03,0000.19,24.8,03.1,0678.9,31.0
2020-06-21T00:12:00Z,00000380,00000600,0002.11,0001.52,0001.15,-000.06,0000.01,0000.09,0000.02,-000.07,-000.10,24.7,03.1,0678.9,31.0
2020-06-21T00:13:00Z,00000380,00000600,0001.51,0000.64,0001.13,-000.06,0000.27,0000.14,0000.01,0000.19,0000.02,24.8,03.1,0678.9,31.0
2020-06-21T00:14:00Z,00000380,00000600,0000.54,0001.26,0001.02,-000.19,0000.08,0000.00,-000.00,0000.02,0000.07,24.7,03.1,0678.8,31.1
2020-06-21T00:15:00Z,00000380,00000600,0000.37,0001.22,0000.25,-000.12,-000.05,-000.09,0000.08,-000.07,0000.05,24.7,03.1,0678.8,31.1
2020-06-21T00:16:00Z,00000380,00000600,0001.84,0001.04,0000.64,-000.09,0000.04,0000.20,0000.04,0000.11,0000.03,24.7,03.1,0678.9,31.0
2020-06-21T00:17:00Z,00000380,00000600,0000.65,0001.25,0000.69,0000.40,0000.05,0000.18,0000.02,-000.08,-000.03,24.7,03.1,0678.9,31.1
2020-06-21T00:18:00Z,00000380,00000600,0000.83,0001.78,0000.20,-000.23,0000.03,-000.09,0000.04,0000.16,-000.01,24.7,03.1,0678.9,31.0
2020-06-21T00:19:00Z,00000380,00000600,0000.53,0000.65,0001.24,0000.01,0000.12,0000.13,0000.23,-000.08,0000.05,24.7,03.1,0678.9,31.0
2020-06-21T00:20:00Z,00000380,00000600,0000.66,0000.70,0000.61,-000.11,-000.07,0000.13,-000.33,0000.03,-000.05,24.7,03.1,0678.9,31.0
2020-06-21T00:21:00Z,00000380,00000600,0001.92,0001.49,0000.52,-000.02,-000.10,-000.19,0000.35,0000.08,0000.17,24.7,03.1,0678.9,31.0
2020-06-21T00:22:00Z,00000380,00000600,0000.25,0000.63,0000.61,0000.36,0000.26,0000.16,-000.15,0000.03,0000.04,24.7,03.1,0678.9,31.0
2020-06-21T00:23:00Z,00000380,00000600,0001.36,0000.80,0000.58,0000.02,-000.22,-000.09,0000.18,0000.16,-000.02,24.7,03.1,0678.9,31.0
2020-06-21T00:24:00Z,00000380,00000600,0001.16,0000.81,0000.71,0000.65,0000.32,0000.29,-000.01,-000.03,0000.05,24.7,03.2,0678.9,31.0
2020-06-21T00:25:00Z,00000380,00000600,0001.07,0001.38,0000.31,-000.20,0000.07,0000.29,0000.20,0000.06,0000.11,24.7,03.1,0678.9,31.0
2020-06-21T00:26:00Z,00000380,00000600,0000.91,0001.33,0000.75,-000.16,0000.36,0000.54,-000.14,-000.01,-000.10,24.7,03.1,0678.9,31.0
2020-06-21T00:27:00Z,00000380,00000600,-000.37,0000.80,0001.00,0000.31,-000.11,0000.11,0000.12,0000.04,0000.07,24.7,03.1,0678.9,31.0
2020-06-21T00:28:00Z,00000380,00000600,0002.11,0000.96,0000.89,0000.88,0000.32,0000.24,0000.08,0000.03,0000.13,24.7,03.2,0679.0,31.0
2020-06-21T00:29:00Z,00000380,00000600,0000.74,0000.88,0000.29,0000.70,0000.25,-000.03,0000.04,0000.20,0000.05,24.6,03.1,0679.0,31.0
2020-06-21T00:30:00Z,00000380,00000600,0001.77,0000.66,0000.31,0000.93,0000.04,-000.23,0000.14,0000.07,0000.10,24.6,03.2,0679.0,31.0
2020-06-21T00:31:00Z,00000380,00010600,-000.19,0000.85,0000.83,-000.22,0000.35,-000.03,0000.00,-000.11,0000.08,24.6,03.2,0679.0,31.1
2020-06-21T00:32:00Z,00000380,00000600,0000.99,0001.31,0000.60,0000.36,-000.03,-000.20,0000.19,0000.08,-000.14,24.6,03.2,0679.0,31.0
2020-06-21T00:33:00Z,00000380,00000600,0001.98,0000.83,0000.33,-000.44,0000.27,-000.05,0000.01,0000.24,0000.25,24.6,03.2,0678.9,31.0
2020-06-21T00:34:00Z,00000380,00000600,0000.81,0000.66,0000.57,0000.71,0000.03,0000.18,0000.21,-000.04,-000.17,24.6,03.3,0678.8,31.0
2020-06-21T00:35:00Z,00000380,00000600,0000.06,0001.01,0000.91,0000.23,0000.25,0000.03,-000.11,-000.01,0000.31,24.6,03.4,0678.7,31.0
2020-06-21T00:36:00Z,00000380,00000600,0001.11,0001.02,0000.65,0000.14,0000.17,0000.34,0000.25,0000.34,-000.20,24.6,03.3,0678.9,31.0
2020-06-21T00:37:00Z,00000380,00000600,0000.91,0001.31,0001.10,0000.81,0000.05,0000.19,0000.07,-000.06,0000.20,24.6,03.4,0678.7,31.0
2020-06-21T00:38:00Z,00000380,00000600,0001.31,0000.13,0000.39,0000.39,0000.14,0000.02,0000.06,0000.12,0000.12,24.6,03.4,0678.9,31.0
2020-06-21T00:39:00Z,00000380,00000600,0001.12,0001.01,0000.71,-000.14,0000.04,0000.08,0000.11,0000.18,-000.03,24.6,03.4,0679.0,31.0
2020-06-21T00:40:00Z,00000380,00000600,0002.26,0000.93,0000.10,-000.26,-000.23,-000.02,-000.02,-000.07,0000.07,24.6,03.5,0679.0,31.0
2020-06-21T00:41:00Z,00000380,00000600,0001.05,0000.87,0000.82,0000.41,0000.23,0000.59,0000.07,0000.09,-000.04,24.6,03.4,0678.9,31.0
2020-06-21T00:42:00Z,00000380,00000600,0001.97,0000.98,0000.42,0000.72,0000.14,0000.25,0000.23,0000.15,0000.15,24.6,03.5,0678.9,31.0
2020-06-21T00:43:00Z,00000380,00000600,0002.20,0000.76,0000.86,0000.49,-000.10,0000.20,-000.01,0000.14,0000.11,24.6,03.4,0678.9,31.0
2020-06-21T00:44:00Z,00000380,00000600,0000.68,0001.00,-000.06,-000.07,-000.09,-000.12,-000.02,-000.27,-000.22,24.6,03.5,0678.8,31.0
2020-06-21T00:45:00Z,00000380,00000600,0001.08,0000.59,0000.93,-000.28,-000.39,0000.43,-000.02,0000.08,0000.18,24.6,03.5,0678.8,31.0
2020-06-21T00:46:00Z,00000380,00000600,0002.59,0001.16,0000.89,0000.38,-000.04,0000.07,0000.14,0000.13,-000.00,24.6,03.5,0678.8,31.1
2020-06-21T00:47:00Z,00000380,00000600,0000.94,0000.91,0000.49,0000.58,0000.14,-000.20,-000.07,-000.03,0000.02,24.6,03.5,0678.8,31.0
2020-06-21T00:48:00Z,00000380,00000600,0001.59,0000.68,0001.07,-000.63,0000.25,0000.25,-000.05,-000.11,0000.05,24.6,03.5,0678.7,31.0
2020-06-21T00:49:00Z,00000380,00000600,0001.00,0001.14,0000.77,-000.18,0000.06,0000.32,0000.03,0000.08,-000.02,24.6,03.5,0678.8,31.1
2020-06-21T00:50:00Z,00000380,00000600,0002.04,0001.13,0000.79,-000.26,0000.47,0000.30,0000.07,0000.04,0000.04,24.6,03.4,0678.7,31.0
2020-06-21T00:51:00Z,00000380,00000600,0001.47,0001.04,0000.93,-000.86,0000.13,-000.04,0000.13,0000.12,0000.14,24.6,03.4,0678.8,31.0
2020-06-21T00:52:00Z,00000380,00000600,0001.49,0001.79,0000.41,0000.16,0000.18,-000.04,-000.16,0000.13,-000.02,24.6,03.5,0678.6,31.0
2020-06-21T00:53:00Z,00000380,00000600,0001.46,0001.20,0000.96,-000.41,-000.02,-000.02,0000.05,-000.20,-000.13,24.6,03.4,0678.5,31.0
2020-06-21T00:54:00Z,00000380,00000600,0001.54,0000.77,0000.48,-000.18,0000.18,0000.02,0000.21,0000.09,0000.18,24.6,03.4,0678.6,31.0
2020-06-21T00:55:00Z,00000380,00000600,0001.49,0001.15,0001.06,0000.27,0000.13,0000.10,0000.04,0000.09,0000.04,24.6,03.4,0678.7,31.0
2020-06-21T00:56:00Z,00000380,00000600,0000.68,0000.31,0000.61,-000.33,0000.44,0000.29,-000.20,-000.26,-000.13,24.6,03.5,0678.6,31.0
2020-06-21T00:57:00Z,00000380,40000600,,,,,,,,,,24.6,03.3,0678.8,31.0
2020-06-21T00:58:00Z,00000380,60000600,,,,,,,,,,24.7,03.2,0677.7,31.0
2020-06-21T00:59:00Z,00000380,20000600,,,,,,,,,,24.8,03.3,0677.6,31.0
2020-06-21T01:00:00Z,00000380,20000600,,,,,,,,,,24.8,03.3,0677.5,31.0
2020-06-21T01:01:00Z,00000380,20000600,,,,,,,,,,24.8,03.3,0677.5,31.0
2020-06-21T01:02:00Z,00000380,20000600,,,,,,,,,,24.8,03.2,0677.5,31.0
2020-06-21T01:03:00Z,00000380,60000600,,,,,,,,,,24.8,03.3,0677.5,31.0
2020-06-21T01:04:00Z,00000380,40000600,0002.05,0000.97,-000.36,-000.12,0000.28,0000.30,0000.06,0000.14,0000.14,24.6,03.5,0678.5,31.0
2020-06-21T01:05:00Z,00000380,00000600,0001.16,0000.52,-000.09,0000.06,0000.77,-000.11,-000.02,-000.06,-000.00,24.6,03.4,0678.6,31.0
2020-06-21T01:06:00Z,00000380,00000600,0001.58,0000.53,0000.29,-000.21,0000.23,0000.05,-000.04,0000.08,0000.04,24.6,03.5,0678.6,31.0
2020-06-21T01:07:00Z,00000380,00000600,0001.98,0000.70,0000.19,0000.09,-000.09,0000.09,0000.16,0000.06,-000.05,24.5,03.5,0678.6,31.0
2020-06-21T01:08:00Z,00000380,00000600,0001.10,0000.43,-000.06,0000.29,0000.10,-000.06,0000.01,-000.12,0000.10,24.5,03.6,0678.5,31.0
2020-06-21T01:09:00Z,00000380,00000600,0002.16,0000.78,0000.21,-000.16,0000.22,0000.07,0000.07,0000.17,0000.07,24.5,03.4,0678.6,31.0
2020-06-21T01:10:00Z,00000380,00000600,0000.27,0000.50,0000.12,0000.67,0000.29,-000.22,0000.00,-000.07,0000.09,24.5,03.5,0678.7,31.0
2020-06-21T01:11:00Z,00000380,00000600,0000.42,0000.68,-000.03,-000.02,0000.07,-000.44,-000.10,-000.09,-000.18,24.5,03.5,0678.7,31.0
2020-06-21T01:12:00Z,00000380,00000600,0001.08,0000.35,0000.55,0000.37,0000.10,0000.06,0000.16,0000.30,0000.15,24.5,03.5,0678.7,31.0
2020-06-21T01:13:00Z,00000380,00000600,0001.44,0000.51,-000.05,-000.33,0000.19,0000.05,-000.01,-000.06,0000.06,24.5,03.5,0678.6,31.0
2020-06-21T01:14:00Z,00000380,00000600,0001.55,0001.21,0000.48,0000.34,0000.24,0000.16,-000.11,-000.09,-000.08,24.5,03.5,0678.6,31.0
2020-06-21T01:15:00Z,00000380,00000600,0001.22,0000.95,0000.28,0000.57,0000.46,0000.13,0000.17,0000.07,0000.11,24.5,03.5,0678.6,31.0
2020-06-21T01:16:00Z,00000380,00000600,0002.20,0001.09,-000.10,0000.22,0000.46,0000.01,-000.07,-000.10,-000.05,24.5,03.5,0678.6,31.0
2020-06-21T01:17:00Z,00000380,00000600,0001.73,0000.43,0000.59,0000.14,0000.08,0000.37,0000.24,0000.39,0000.25,24.5,03.5,0678.7,31.1
2020-06-21T01:18:00Z,00000380,00000600,0001.79,0000.84,0000.55,0000.25,0000.65,-000.04,-000.09,-000.50,-000.21,24.6,03.5,0678.6,31.1
2020-06-21T01:19:00Z,00000380,00000600,0001.25,0000.52,0000.02,-000.26,0000.97,0000.34,0000.05,0000.42,0000.19,24.6,03.5,0678.7,31.1
2020-06-21T01:20:00Z,00000380,00000600,0000.73,0000.32,0000.51,-000.30,0000.07,-000.02,0000.01,-000.06,0000.02,24.6,03.5,0678.7,31.1
2020-06-21T01:21:00Z,00000380,00000600,0001.37,0000.64,0000.26,0000.93,-000.00,-000.24,0000.05,0000.31,0000.10,24.6,03.5,0678.7,31.1
2020-06-21T01:22:00Z,00000380,00000600,0001.01,0000.25,0000.71,0000.56,0000.21,-000.03,0000.25,-000.01,0000.13,24.6,03.5,0678.8,31.0
2020-06-21T01:23:00Z,00000380,00000600,0000.98,0000.77,0000.62,-000.04,0000.40,0000.15,0000.16,0000.03,0000.00,24.6,03.5,0678.7,31.0
2020-06-21T01:24:00Z,00000380,00000600,0001.28,0001.19,0000.42,-000.53,0000.49,0000.05,-000.21,0000.03,0000.00,24.6,03.5,0678.8,31.0
2020-06-21T01:25:00Z,00000380,00000600,0001.30,0000.60,0000.20,0000.54,0000.31,-000.10,0000.22,0000.28,0000.18,24.6,03.6,0678.9,31.0
2020-06-21T01:26:00Z,00000380,00000600,0000.09,0000.73,-000.08,0000.28,0000.44,0000.28,-000.08,-000.09,0000.02,24.5,03.6,0678.8,31.0
2020-06-21T01:27:00Z,00000380,00000600,0001.56,0000.50,0000.58,-000.48,0000.33,0000.21,0000.07,-000.01,-000.06,24.5,03.6,0678.7,31.1
2020-06-21T01:28:00Z,00000380,00000600,-000.17,0001.35,-000.17,0000.33,0000.06,0000.23,0000.11,0000.01,0000.01,24.6,03.5,0678.8,31.0
2020-06-21T01:29:00Z,00000380,00000600,0002.06,0000.73,-000.19,-000.27,0000.27,0000.06,-000.09,-000.00,-000.08,24.5,03.5,0678.8,31.0
2020-06-21T01:30:00Z,00000380,00000600,0000.90,0001.16,0000.43,0000.10,-000.18,0000.22,-000.29,-000.15,-000.11,24.5,03.5,0678.7,31.0
2020-06-21T01:31:00Z,00000380,00000600,0001.35,0000.34,0000.73,-001.00,0000.09,-000.36,0000.22,0000.08,0000.14,24.5,03.5,0678.8,31.0
2020-06-21T01:32:00Z,00000380,00000600,0000.55,0001.38,0000.51,0000.19,0000.32,0000.12,0000.04,0000.02,0000.02,24.5,03.5,0678.9,31.0
2020-06-21T01:33:00Z,00000380,00000600,0002.21,0000.28,0000.72,0000.04,0000.46,0000.17,0000.13,0000.29,0000.09,24.5,03.5,0678.8,31.0
2020-06-21T01:34:00Z,00000380,00000600,0001.34,0000.95,0000.26,0000.11,0000.16,-000.16,-000.09,-000.10,0000.02,24.5,03.5,0678.8,31.0
2020-06-21T01:35:00Z,00000380,00000600,0001.47,0001.43,0000.20,0000.64,0000.39,0000.01,-000.01,-000.18,-000.06,24.5,03.5,0678.7,31.0
2020-06-21T01:36:00Z,00000380,00000600,0000.87,0000.76,0000.04,0000.41,0000.35,0000.12,-000.09,-000.15,0000.04,24.5,03.4,0678.7,31.0
2020-06-21T01:37:00Z,00000380,00000600,0000.19,0000.83,0000.45,0000.61,0000.30,-000.04,0000.32,0000.37,0000.10,24.5,03.4,0678.7,31.0
2020-06-21T01:38:00Z,00000380,00000600,0001.28,0000.58,0000.25,0000.13,0000.25,0000.18,-000.16,-000.02,-000.08,24.5,03.5,0678.7,31.0
2020-06-21T01:39:00Z,00000380,00000600,0001.75,0000.18,0000.49,0000.42,0000.36,0000.21,0000.06,-000.09,0000.11,24.5,03.4,0678.6,31.0
2020-06-21T01:40:00Z,00000380,00000600,0000.55,0000.79,0000.12,0000.46,0000.79,-000.21,-000.08,0000.05,-000.12,24.4,03.4,0678.6,31.0
2020-06-21T01:41:00Z,00000380,00000600,0001.10,0000.59,0000.55,-000.33,0000.40,0000.23,0000.29,0000.20,0000.23,24.4,03.5,0678.6,31.0
2020-06-21T01:42:00Z,00000380,00000600,0000.43,0000.72,0000.24,0001.27,0000.52,-000.19,-000.32,-000.34,-000.14,24.4,03.5,0678.5,31.0
2020-06-21T01:43:00Z,00000380,00000600,0001.81,0001.10,0000.26,0000.19,0000.28,0000.24,0000.33,0000.32,0000.03,24.4,03.4,0678.7,31.0
2020-06-21T01:44:00Z,00000380,00000600,0002.10,0000.69,0000.37,0000.11,-000.25,0000.17,-000.29,-000.25,-000.04,24.4,03.5,0678.6,31.0
2020-06-21T01:45:00Z,00000380,00000600,0001.67,0001.16,0000.86,0000.38,0000.24,0000.41,0000.06,0000.15,0000.02,24.4,03.4,0678.7,31.0
2020-06-21T01:46:00Z,00000380,00000600,0001.33,0000.45,0000.56,-000.18,-000.08,0000.07,0000.08,0000.12,0000.09,24.4,03.4,0678.5,31.0
2020-06-21T01:47:00Z,00000380,00000600,0002.14,0000.71,0000.37,0001.20,0000.16,-000.33,0000.03,0000.01,0000.02,24.5,03.4,0678.5,31.0
2020-06-21T01:48:00Z,00000380,00000600,0000.95,0000.32,0000.21,0000.53,0000.71,-000.33,-000.06,-000.09,0000.11,24.4,03.4,0678.4,31.0
2020-06-21T01:49:00Z,00000380,00000600,0001.93,0001.20,0000.60,0000.48,0000.52,-000.22,0000.01,-000.19,-000.19,24.4,03.4,0678.5,31.0
2020-06-21T01:50:00Z,00000380,00000600,0001.82,0000.33,0000.10,-000.04,0000.46,-000.12,0000.09,0000.27,0000.09,24.4,03.4,0678.6,31.0
2020-06-21T01:51:00Z,00000380,00000600,0001.35,0000.45,0000.91,-000.10,-000.10,0000.18,0000.18,0000.06,0000.09,24.4,03.4,0678.6,31.0
2020-06-21T01:52:00Z,00000380,00000600,0001.50,-000.19,0000.28,-000.27,0000.32,-000.31,0000.17,0000.29,0000.11,24.4,03.5,0678.7,31.0
2020-06-21T01:53:00Z,00000380,00000600,0001.92,0000.62,0000.61,0000.06,0000.42,-000.06,0000.02,0000.05,0000.10,24.4,03.5,0678.7,31.0
2020-06-21T01:54:00Z,00000380,00000600,0001.22,0000.51,0000.39,0000.10,0000.09,0000.19,0000.00,0000.02,0000.01,24.4,03.5,0678.7,31.0
2020-06-21T01:55:00Z,00000380,00000600,0001.96,0000.58,0000.57,0000.21,0000.09,0000.09,-000.19,-000.24,0000.03,24.4,03.5,0678.6,31.0
2020-06-21T01:56:00Z,00000380,00000600,0000.91,0000.60,0000.04,0000.51,0000.41,0000.00,0000.22,0000.19,0000.05,24.4,03.4,0678.5,31.0
2020-06-21T01:57:00Z,00000380,40000600,,,,,,,,,,24.4,03.3,0678.6,31.0
2020-06-21T01:58:00Z,00000380,60000600,,,,,,,,,,24.5,03.5,0677.6,31.0
2020-06-21T01:59:00Z,00000380,20000600,,,,,,,,,,24.6,03.3,0677.6,31.0
2020-06-21T02:00:00Z,00000380,20000600,,,,,,,,,,24.6,03.3,0677.6,31.0
2020-06-21T02:01:00Z,00000380,20000600,,,,,,,,,,24.6,03.3,0677.6,31.0
2020-06-21T02:02:00Z,00000380,20000600,,,,,,,,,,24.6,03.3,0677.6,31.0
2020-06-21T02:03:00Z,00000380,60000600,,,,,,,,,,24.7,03.3,0677.6,31.1
2020-06-21T02:04:00Z,00000380,40000600,0001.17,0000.77,0000.42,0000.08,-000.04,0000.26,-000.07,0000.31,0000.11,24.6,03.5,0678.6,31.0
2020-06-21T02:05:00Z,00000380,00000600,0001.53,0000.75,0000.58,0000.42,0000.36,0000.12,0000.13,-000.01,0000.07,24.5,03.4,0678.7,31.0
2020-06-21T02:06:00Z,00000380,00000600,0002.63,0000.44,0000.23,0000.66,0000.30,-000.43,-000.00,-000.12,-000.15,24.5,03.4,0678.6,31.0
2020-06-21T02:07:00Z,00000380,00000600,0001.97,0000.89,0000.69,0000.68,0000.28,0000.06,0000.09,0000.20,0000.26,24.5,03.4,0678.7,31.0
2020-06-21T02:08:00Z,00000380,00000600,0002.25,0000.45,0000.09,-000.13,0000.00,-000.35,-000.06,-000.13,-000.02,24.5,03.5,0678.7,31.0
2020-06-21T02:09:00Z,00000380,00000600,0001.80,0001.19,0000.25,0000.33,0000.19,0000.42,0000.04,0000.06,-000.08,24.5,03.5,0678.7,31.0
2020-06-21T02:10:00Z,00000380,00000600,0001.21,0000.44,0000.44,0000.20,0000.25,-000.09,0000.23,0000.12,-000.01,24.4,03.5,0678.7,31.0
2020-06-21T02:11:00Z,00000380,00000600,0002.00,0001.26,0000.21,0001.15,0000.29,-000.19,-000.03,0000.06,0000.09,24.4,03.6,0678.8,31.0
2020-06-21T02:12:00Z,00000380,00000600,0001.95,0001.15,0000.22,0000.23,0000.13,-000.02,-000.05,-000.13,-000.01,24.4,03.5,0678.7,31.0
2020-06-21T02:13:00Z,00000380,00000600,0002.55,0000.69,-000.01,0000.02,0000.04,-000.13,-000.04,0000.20,0000.17,24.4,03.5,0678.8,31.0
2020-06-21T02:14:00Z,00000380,00000600,0002.08,0000.70,0000.34,0000.83,0000.04,0000.26,0000.21,-000.02,0000.06,24.4,03.5,0678.8,31.0
2020-06-21T02:15:00Z,00000380,00000600,0001.23,0000.67,0000.33,0000.84,0000.07,-000.09,-000.06,0000.01,-000.01,24.4,03.5,0678.8,31.0
2020-06-21T02:16:00Z,00000380,00000600,0002.09,0000.99,0000.40,0000.62,0000.08,-000.03,0000.05,0000.02,-000.07,24.4,03.5,0678.8,31.0
2020-06-21T02:17:00Z,00000380,00000600,0001.42,0000.64,0000.41,0000.13,0000.21,0000.16,0000.02,0000.20,-000.04,24.4,03.5,0678.8,31.0
2020-06-21T02:18:00Z,00000380,00000600,0001.90,0000.65,0000.55,0000.43,0000.67,-000.17,-000.11,-000.20,0000.06,24.4,03.5,0678.8,31.0
2020-06-21T02:19:00Z,00000380,00000600,0002.21,0001.39,0000.24,0000.49,0000.45,-000.34,0000.03,0000.14,0000.11,24.4,03.6,0678.8,31.0
2020-06-21T02:20:00Z,00000380,00000600,0000.87,0001.04,0000.03,0000.89,0000.27,0000.09,-000.08,-000.04,-000.01,24.4,03.4,0678.8,31.0
2020-06-21T02:21:00Z,00000380,00000600,0000.28,0000.70,0000.47,0000.49,0000.13,-000.52,0000.03,-000.15,0000.01,24.4,03.4,0678.8,31.0
2020-06-21T02:22:00Z,00000380,00000600,0002.28,0000.55,0000.56,0000.72,0000.24,0000.26,0000.08,0000.03,0000.11,24.3,03.4,0678.8,31.0
2020-06-21T02:23:00Z,00000380,00000600,0001.42,0000.89,0000.29,0000.19,0000.37,-000.19,-000.11,-000.14,-000.01,24.3,03.4,0678.7,31.0
2020-06-21T02:24:00Z,00000380,00000600,0001.50,0000.42,0000.25,0000.59,0000.37,-000.03,0000.05,0000.15,-000.11,24.3,03.3,0678.7,31.0
2020-06-21T02:25:00Z,00000380,00000600,0001.62,0001.04,0000.30,0000.51,0000.46,0000.17,-000.04,-000.12,-000.07,24.3,03.4,0678.8,31.0
2020-06-21T02:26:00Z,00000380,00000600,0001.17,0001.00,0000.66,0000.45,0000.09,0000.29,0000.04,0000.07,0000.06,24.3,03.3,0678.8,31.0
2020-06-21T02:27:00Z,00000380,00000600,0002.06,0000.71,0000.66,0000.75,0000.20,0000.11,-000.16,-000.04,-000.03,24.3,03.3,0678.7,31.0
2020-06-21T02:28:00Z,00000380,00000600,0002.30,0000.91,-000.01,0000.08,0000.47,0000.06,-000.09,-000.11,0000.07,24.3,03.2,0678.7,31.0
2020-06-21T02:29:00Z,00000380,00000600,0000.68,0000.40,-000.17,0000.05,0000.29,-000.09,-000.24,-000.24,-000.23,24.3,03.3,0678.7,31.0
2020-06-21T02:30:00Z,00000380,00000600,0000.34,0000.54,0000.32,0000.48,0000.17,0000.01,0000.09,0000.06,-000.01,24.3,03.2,0678.7,31.0
2020-06-21T02:31:00Z,00000380,00000600,0001.65,0001.08,0000.66,-000.07,0000.41,0000.30,-000.06,-000.07,-000.06,24.3,03.1,0678.7,31.0
2020-06-21T02:32:00Z,00000380,00000600,0001.64,0000.58,0000.30,0000.35,0000.19,-000.18,0000.07,0000.17,0000.15,24.4,03.1,0678.7,31.1
2020-06-21T02:33:00Z,00000380,00000600,0001.16,0000.34,0000.76,0000.25,0000.33,0000.11,-000.13,-000.02,-000.17,24.4,03.1,0678.7,31.1
2020-06-21T02:34:00Z,00000380,00000600,0001.41,0000.31,0000.16,0000.97,0000.24,0000.07,-000.08,-000.11,0000.03,24.5,03.0,0678.7,31.1
2020-06-21T02:35:00Z,00000380,00000600,0000.68,0000.67,0000.51,0000.83,0000.34,-000.24,0000.08,0000.04,0000.19,24.5,03.0,0678.7,31.1
2020-06-21T02:36:00Z,00000380,00000600,0000.99,0000.56,0000.11,0000.23,-000.01,-000.12,0000.00,0000.09,-000.13,24.4,02.9,0678.7,31.1
2020-06-21T02:37:00Z,00000380,00000600,0001.35,0000.83,0000.18,0001.14,0000.18,0000.19,-000.03,-000.10,0000.02,24.4,03.0,0678.6,31.0
2020-06-21T02:38:00Z,00000380,00000600,0001.42,0000.44,0000.50,-000.08,-000.16,-000.26,-000.10,0000.08,0000.05,24.4,02.9,0678.6,31.0
2020-06-21T02:39:00Z,00000380,00000600,0002.04,0001.07,0000.50,-000.26,0000.31,0000.42,-000.03,-000.12,-000.03,24.4,02.8,0678.6,31.0
2020-06-21T02:40:00Z,00000380,00000600,0000.71,0001.01,-000.01,0000.64,0000.10,-000.31,0000.07,-000.07,0000.03,24.4,02.8,0678.6,31.0
2020-06-21T02:41:00Z,00000380,00000600,0001.34,0000.65,0000.63,0000.27,0000.02,0000.22,-000.08,-000.13,-000.29,24.4,02.8,0678.5,31.0
2020-06-21T02:42:00Z,00000380,00000600,0002.79,0000.43,0000.15,0000.93,0000.27,-000.32,-000.04,0000.04,0000.29,24.4,02.8,0678.6,31.0
2020-06-21T02:43:00Z,00000380,00000600,0001.52,0000.92,0000.05,0001.17,0000.51,0000.07,-000.04,-000.01,-000.21,24.4,02.8,0678.5,31.0
2020-06-21T02:44:00Z,00000380,00000600,0001.57,0000.82,0000.00,0000.59,0000.30,0000.09,-000.05,0000.03,0000.07,24.4,02.8,0678.6,31.0
2020-06-21T02:45:00Z,00000380,00010600,0002.07,0000.21,0000.01,0000.81,-000.01,-000.07,-000.08,-000.08,-000.14,24.4,02.8,0678.6,31.0
2020-06-21T02:46:00Z,00000380,00000600,0001.66,0000.94,0000.10,-000.17,0000.21,0000.32,0000.13,0000.22,0000.25,24.4,02.8,0678.5,31.0
2020-06-21T02:47:00Z,00000380,00000600,0001.12,0000.54,0000.08,0000.40,-000.10,0000.22,-000.06,-000.30,-000.21,24.4,02.7,0678.6,31.0
2020-06-21T02:48:00Z,00000380,00000600,0001.26,0000.88,-000.00,0000.01,0000.21,-000.15,0000.07,0000.23,0000.25,24.4,02.8,0678.5,31.0
2020-06-21T02:49:00Z,00000380,00000600,0000.88,0000.76,0000.06,0000.56,0000.12,0000.39,0000.03,-000.01,-000.10,24.4,02.7,0678.6,31.1
2020-06-21T02:50:00Z,00000380,00000600,0001.77,0000.64,0000.24,0000.21,0000.13,0000.10,-000.13,0000.01,-000.00,24.4,02.8,0678.6,31.0
2020-06-21T02:51:00Z,00000380,00000600,0001.19,0000.73,0000.44,0000.88,0000.36,-000.36,0000.21,-000.04,0000.08,24.4,02.6,0678.6,31.0
2020-06-21T02:52:00Z,00000380,00000600,0000.89,0000.83,0000.62,0000.50,0000.09,-000.15,-000.13,0000.12,0000.04,24.4,02.7,0678.6,31.0
2020-06-21T02:53:00Z,00000380,00000600,0001.89,0001.02,0000.35,0000.80,0000.29,0000.01,0000.05,-000.02,0000.04,24.4,02.6,0678.6,31.0
2020-06-21T02:54:00Z,00000380,00000600,0001.57,0001.35,0000.53,0000.19,0000.08,-000.03,0000.03,-000.02,-000.15,24.4,02.6,0678.6,31.0
2020-06-21T02:55:00Z,00000380,00000600,0001.15,0000.26,-000.10,0000.14,0000.26,-000.14,-000.02,0000.03,0000.09,24.4,02.6,0678.6,31.0
2020-06-21T02:56:00Z,00000380,00000600,0001.13,0000.81,-000.08,-000.04,-000.16,-000.09,-000.05,-000.03,-000.10,24.4,02.7,0678.7,31.0
2020-06-21T02:57:00Z,00000380,40000600,,,,,,,,,,24.4,02.2,0678.6,31.0
2020-06-21T02:58:00Z,00000380,60000600,,,,,,,,,,24.5,02.6,0677.6,31.0
2020-06-21T02:59:00Z,00000380,20000600,,,,,,,,,,24.5,02.6,0677.6,31.0
2020-06-21T03:00:00Z,00000380,20000600,,,,,,,,,,24.6,02.6,0677.6,31.0
2020-06-21T03:01:00Z,00000380,20000600,,,,,,,,,,24.6,02.4,0677.6,31.0
2020-06-21T03:02:00Z,00000380,20000600,,,,,,,,,,24.6,02.4,0677.6,31.0
2020-06-21T03:03:00Z,00000380,60000600,,,,,,,,,,24.6,02.4,0677.6,31.0
2020-06-21T03:04:00Z,00000380,40000600,0000.48,0001.07,0000.08,-000.62,0000.01,0000.09,0000.02,0000.15,-000.07,24.5,02.5,0678.5,31.0
2020-06-21T03:05:00Z,00000380,00000600,0000.38,0001.08,0000.38,0000.60,0000.60,0000.25,0000.12,-000.03,0000.00,24.5,02.5,0678.6,31.0
2020-06-21T03:06:00Z,00000380,00000600,0000.02,0001.20,0000.55,0001.02,0000.12,0000.17,-000.00,-000.01,0000.06,24.4,02.5,0678.6,31.0
2020-06-21T03:07:00Z,00000380,00000600,0001.14,0000.80,0000.53,0000.43,0000.22,0000.51,0000.23,0000.01,-000.04,24.4,02.5,0678.6,31.0
2020-06-21T03:08:00Z,00000380,00000600,0001.24,0001.37,-000.02,0000.88,0000.12,-000.16,-000.19,-000.18,0000.05,24.4,02.5,0678.6,31.0
2020-06-21T03:09:00Z,00000380,00000600,0000.10,0001.01,0000.04,0000.33,-000.22,-000.08,0000.22,0000.10,0000.11,24.4,02.5,0678.6,31.0
2020-06-21T03:10:00Z,00000380,00000600,0001.25,0001.21,0000.38,0001.23,-000.12,0000.37,-000.16,0000.17,0000.03,24.4,02.5,0678.6,31.0